Location: Endfield
(51.6667°N, 0.0667°W)
Time: 03:31:23
(UTC+00:00)

USA 234 - Pass Details

Date: 19 May 2024
Orbit: 1100 x 1107 km, 123.0° (Epoch: 16 June)

Event Time Altitude Azimuth Distance (km) Brightness Sun altitude
Exits shadow 23:38:52 12° 126° (SE) 2,830 5.0 -18.2°
Maximum altitude 23:45:04 77° 212° (SSW) 1,134 3.2 -18.2°
Drops below altitude 10° 23:51:38 10° 299° (WNW) 2,964 5.9 -18.3°
Sets 23:54:08 0° 301° (WNW) 3,923 6.6 -18.3°
